Location: Unspecified
(0.0000°N, 0.0000°E)
Time: 15:11:57
(UTC+00:00)

Altair - Pass Details

Date: 18 March 2026
Orbit: 1502 x 1682 km, 47.2° (Epoch: 18 April)

Event Time Altitude Azimuth Distance (km) Brightness Sun altitude
Rises 03:47:51 0° 348° (NNW) 4,632 9.9 -35.1°
Reaches altitude 10° 03:52:01 10° 4° (N) 3,670 9.5 -34.0°
Maximum altitude 03:58:17 20° 48° (NE) 3,000 9.4 -32.5°
Drops below altitude 10° 04:04:39 10° 91° (E) 3,759 10.4 -30.9°
Sets 04:08:55 0° 107° (ESE) 4,779 11.2 -29.8°
